TimeEST,TemperatureF,Dew PointF,Humidity,Sea Level PressureIn,VisibilityMPH,Wind Direction,Wind SpeedMPH,Gust SpeedMPH,PrecipitationIn,Events,Conditions,WindDirDegrees,DateUTC
12:15 AM,16.5,13.3,87,30.35,10.0,Calm,Calm,-,N/A,,Clear,0,2014-01-04 05:15:00
12:35 AM,16.2,12.9,87,30.35,10.0,Calm,Calm,-,N/A,,Clear,0,2014-01-04 05:35:00
12:55 AM,16.7,13.8,88,30.35,10.0,Calm,Calm,-,N/A,,Clear,0,2014-01-04 05:55:00
1:15 AM,16.7,14.0,89,30.35,10.0,Calm,Calm,-,N/A,,Clear,0,2014-01-04 06:15:00
1:35 AM,15.8,12.7,88,30.35,10.0,Calm,Calm,-,N/A,,Clear,0,2014-01-04 06:35:00
1:55 AM,14.9,12.0,88,30.35,10.0,Calm,Calm,-,N/A,,Clear,0,2014-01-04 06:55:00
2:15 AM,15.8,12.6,87,30.37,10.0,Calm,Calm,-,N/A,,Clear,0,2014-01-04 07:15:00
2:35 AM,15.4,12.4,88,30.37,10.0,Calm,Calm,-,N/A,,Clear,0,2014-01-04 07:35:00
2:55 AM,15.3,12.2,88,30.38,10.0,Calm,Calm,-,N/A,,Clear,0,2014-01-04 07:55:00
3:15 AM,14.7,11.8,88,30.38,10.0,Calm,Calm,-,N/A,,Clear,0,2014-01-04 08:15:00
3:35 AM,14.7,11.8,88,30.38,10.0,Calm,Calm,-,N/A,,Clear,0,2014-01-04 08:35:00
3:55 AM,14.7,11.8,88,30.37,10.0,Calm,Calm,-,N/A,,Clear,0,2014-01-04 08:55:00
4:15 AM,14.7,11.8,88,30.37,10.0,Calm,Calm,-,N/A,,Clear,0,2014-01-04 09:15:00
4:35 AM,14.5,11.7,88,30.37,10.0,Calm,Calm,-,N/A,,Clear,0,2014-01-04 09:35:00
4:55 AM,14.4,11.5,88,30.37,10.0,Calm,Calm,-,N/A,,Clear,0,2014-01-04 09:55:00
5:15 AM,14.0,11.3,89,30.37,10.0,Calm,Calm,-,N/A,,Clear,0,2014-01-04 10:15:00
5:35 AM,13.8,11.1,89,30.37,10.0,Calm,Calm,-,N/A,,Clear,0,2014-01-04 10:35:00
5:55 AM,13.6,10.4,87,30.37,10.0,Calm,Calm,-,N/A,,Clear,0,2014-01-04 10:55:00
6:15 AM,13.6,10.8,88,30.37,10.0,Calm,Calm,-,N/A,,Clear,0,2014-01-04 11:15:00
6:35 AM,13.1,10.2,88,30.38,10.0,Calm,Calm,-,N/A,,Clear,0,2014-01-04 11:35:00
6:55 AM,13.1,10.2,88,30.38,10.0,Calm,Calm,-,N/A,,Clear,0,2014-01-04 11:55:00
7:15 AM,13.1,9.7,86,30.39,10.0,Calm,Calm,-,N/A,,Clear,0,2014-01-04 12:15:00
7:35 AM,12.4,9.3,88,30.39,10.0,Calm,Calm,-,N/A,,Clear,0,2014-01-04 12:35:00
7:55 AM,13.1,10.2,88,30.39,10.0,Calm,Calm,-,N/A,,Clear,0,2014-01-04 12:55:00
8:15 AM,13.5,10.4,88,30.38,10.0,Calm,Calm,-,N/A,,Clear,0,2014-01-04 13:15:00
8:35 AM,14.9,11.8,88,30.38,10.0,WSW,3.5,-,N/A,,Clear,250,2014-01-04 13:35:00
8:55 AM,16.7,13.3,86,30.38,10.0,Calm,Calm,-,N/A,,Clear,0,2014-01-04 13:55:00
9:15 AM,19.9,15.8,84,30.38,10.0,East,3.5,-,N/A,,Clear,100,2014-01-04 14:15:00
9:35 AM,22.3,16.3,78,30.38,10.0,NE,3.5,-,N/A,,Clear,50,2014-01-04 14:35:00
9:55 AM,24.4,17.8,76,30.39,10.0,Calm,Calm,-,N/A,,Clear,0,2014-01-04 14:55:00
10:15 AM,26.4,16.9,67,30.39,10.0,NE,4.6,-,N/A,,Clear,50,2014-01-04 15:15:00
10:35 AM,28.0,15.8,60,30.39,10.0,NE,3.5,-,N/A,,Clear,50,2014-01-04 15:35:00
10:55 AM,29.5,13.8,52,30.38,10.0,NE,4.6,-,N/A,,Clear,50,2014-01-04 15:55:00
11:15 AM,31.1,12.6,46,30.36,10.0,NE,4.6,-,N/A,,Clear,40,2014-01-04 16:15:00
11:35 AM,32.9,12.6,43,30.35,10.0,NE,5.8,-,N/A,,Clear,50,2014-01-04 16:35:00
11:55 AM,35.4,14.7,43,30.33,10.0,ENE,5.8,-,N/A,,Clear,70,2014-01-04 16:55:00
12:15 PM,36.7,16.7,44,30.32,10.0,SSE,5.8,-,N/A,,Clear,150,2014-01-04 17:15:00
12:35 PM,37.8,18.7,46,30.30,10.0,SE,8.1,-,N/A,,Clear,140,2014-01-04 17:35:00
12:55 PM,37.6,19.4,48,30.29,10.0,SE,5.8,-,N/A,,Clear,130,2014-01-04 17:55:00
1:15 PM,39.2,21.7,50,30.29,10.0,SE,4.6,-,N/A,,Clear,140,2014-01-04 18:15:00
1:35 PM,39.9,23.0,51,30.28,10.0,SSE,5.8,-,N/A,,Clear,150,2014-01-04 18:35:00
1:55 PM,41.4,25.3,53,30.28,10.0,SE,6.9,-,N/A,,Clear,140,2014-01-04 18:55:00
2:15 PM,42.1,26.1,53,30.27,10.0,SE,3.5,-,N/A,,Clear,140,2014-01-04 19:15:00
2:35 PM,42.8,23.9,47,30.26,10.0,ESE,4.6,-,N/A,,Clear,120,2014-01-04 19:35:00
2:55 PM,42.3,24.6,50,30.25,10.0,Calm,Calm,-,N/A,,Scattered Clouds,0,2014-01-04 19:55:00
3:15 PM,42.6,26.1,52,30.25,10.0,ENE,4.6,-,N/A,,Overcast,70,2014-01-04 20:15:00
3:35 PM,42.6,26.8,54,30.25,10.0,Calm,Calm,-,N/A,,Overcast,0,2014-01-04 20:35:00
3:55 PM,42.8,27.1,54,30.25,10.0,Calm,Calm,-,N/A,,Overcast,0,2014-01-04 20:55:00
4:15 PM,42.3,28.9,59,30.26,10.0,Calm,Calm,-,N/A,,Overcast,0,2014-01-04 21:15:00
4:35 PM,41.9,29.3,61,30.26,10.0,Calm,Calm,-,N/A,,Overcast,0,2014-01-04 21:35:00
4:55 PM,41.0,29.3,63,30.26,10.0,SSE,3.5,-,N/A,,Overcast,160,2014-01-04 21:55:00
5:15 PM,41.0,30.2,65,30.26,10.0,ESE,5.8,-,N/A,,Overcast,120,2014-01-04 22:15:00
5:35 PM,40.1,31.5,71,30.25,10.0,SSE,4.6,-,N/A,,Overcast,160,2014-01-04 22:35:00
5:55 PM,39.7,32.0,74,30.25,10.0,SSE,3.5,-,N/A,,Overcast,150,2014-01-04 22:55:00
6:15 PM,39.6,32.0,74,30.25,10.0,SSE,3.5,-,N/A,,Overcast,150,2014-01-04 23:15:00
6:35 PM,39.7,32.2,74,30.25,10.0,Calm,Calm,-,N/A,,Overcast,0,2014-01-04 23:35:00
6:55 PM,38.5,32.2,78,30.25,10.0,Calm,Calm,-,N/A,,Overcast,0,2014-01-04 23:55:00
7:15 PM,38.3,32.2,79,30.25,10.0,Calm,Calm,-,N/A,,Overcast,0,2014-01-05 00:15:00
7:35 PM,38.8,32.4,78,30.24,10.0,Calm,Calm,-,N/A,,Overcast,0,2014-01-05 00:35:00
7:55 PM,38.3,32.4,79,30.24,10.0,Calm,Calm,-,N/A,,Overcast,0,2014-01-05 00:55:00
8:15 PM,37.6,32.2,81,30.25,10.0,Calm,Calm,-,N/A,,Overcast,0,2014-01-05 01:15:00
8:35 PM,37.6,32.2,81,30.25,10.0,Calm,Calm,-,N/A,,Overcast,0,2014-01-05 01:35:00
8:55 PM,36.3,32.0,84,30.24,10.0,West,3.5,-,N/A,,Overcast,260,2014-01-05 01:55:00
9:15 PM,35.2,31.8,87,30.24,10.0,Calm,Calm,-,N/A,,Overcast,0,2014-01-05 02:15:00
9:35 PM,34.7,31.3,87,30.24,10.0,Calm,Calm,-,N/A,,Overcast,0,2014-01-05 02:35:00
9:55 PM,34.5,31.6,89,30.23,10.0,Calm,Calm,-,N/A,,Overcast,0,2014-01-05 02:55:00
10:15 PM,34.2,31.1,89,30.23,10.0,Calm,Calm,-,N/A,,Overcast,0,2014-01-05 03:15:00
10:35 PM,33.6,30.2,87,30.22,10.0,Calm,Calm,-,N/A,,Overcast,0,2014-01-05 03:35:00
10:55 PM,34.2,31.6,90,30.22,10.0,WSW,3.5,-,N/A,,Overcast,250,2014-01-05 03:55:00
11:15 PM,34.7,32.0,90,30.21,10.0,Calm,Calm,-,N/A,,Overcast,0,2014-01-05 04:15:00
11:35 PM,35.4,32.2,88,30.20,10.0,WSW,3.5,-,N/A,,Overcast,250,2014-01-05 04:35:00
11:55 PM,35.8,32.2,87,30.20,10.0,WSW,3.5,-,N/A,,Overcast,250,2014-01-05 04:55:00